LATEST WEATHER OBSERVATIONS RECORDED AT FUA'AMOTU AIRPORT
DATE TIME CLOUD WIND KT TEMP
(C)
DewPoint
(C)
RH(%) WEATHER MSL PRESS.
(MB)
20.08.2017 07:00AM CLOUDY CALM 0 23 23 100 NIL 1013
20.08.2017 06:00AM CLOUDY CALM 0 23 23 100 NIL 1012
20.08.2017 05:00AM CLOUDY CALM 0 23 23 100 NIL 1012
20.08.2017 04:00AM CLOUDY CALM 0 23 23 100 NIL 1012
20.08.2017 03:00AM CLOUDY CALM 0 22 22 100 NIL 1012
20.08.2017 02:00AM CLOUDY CALM 0 22 22 100 NIL 1013
20.08.2017 01:00AM CLOUDY CALM 0 22 21 94.06488 NIL 1013
20.08.2017 12:00AM CLOUDY CALM 0 21.9 21.6 98.18466 LIGHT SHOWER 1013
19.08.2017 11:00PM CLOUDY CALM 0 21.9 21.3 96.39819 LIGHT SHOWER 1013
19.08.2017 10:00PM CLOUDY CALM 0 21.8 20.7 93.47892 LIGHT SHOWER 1013
19.08.2017 09:00PM CLOUDY CALM 0 22.1 19.5 85.21868 NIL 1013
19.08.2017 08:00PM CLOUDY CALM 0 22.1 19.5 85.21868 NIL 1013
19.08.2017 07:00PM CLOUDY CALM 0 22.1 19.5 85.21868 NIL 1013
19.08.2017 05:00PM PARTLY CLOUDY VARIABLE 2 24.6 17.4 64.254 NIL 1012
19.08.2017 04:00PM FINE CALM 0 24.9 17.1 62 NIL 1012
19.08.2017 03:00PM PARTLY CLOUDY CALM 0 25.5 16.7 58 NIL 1013
19.08.2017 02:00PM PARTLY CLOUDY CALM 0 25.8 20.5 60 NIL 1014
19.08.2017 01:00PM PARTLY CLOUDY CALM 0 25 15.9 57 NIL 1014
19.08.2017 12:00PM PARTLY CLOUDY CALM 0 24.9 18.5 60 NIL 1016
19.08.2017 11:00AM PARTLY CLOUDY CALM 0 23.8 15 59 NIL 1016
19.08.2017 10:00AM PARTLY CLOUDY CALM 0 23 16.8 65 NIL 1016
19.08.2017 09:00AM PARTLY CLOUDY CALM 0 19 18 90 NIL 1017
19.08.2017 08:00AM PARTLY CLOUDY CALM 0 15 14 96 NIL 1016
19.08.2017 07:00AM PARTLY CLOUDY CALM 0 14 13 95 NIL 1016